owner,sensor,date,latitude,longitude,vertical_datum,sea_water_practical_salinity,qcFlag 
ENP,ioos.station.NOAA.NDBC:DKKF1:1,2014-11-01T00:00:00Z,25.1800,-80.4900,1.5,32.39,1111122 
ENP,ioos.station.NOAA.NDBC:DKKF1:1,2014-11-01T01:00:00Z,25.1800,-80.4900,1.5,32.44,1111122 
ENP,ioos.station.NOAA.NDBC:DKKF1:1,2014-11-01T02:00:00Z,25.1800,-80.4900,1.5,32.45,1111122 
ENP,ioos.station.NOAA.NDBC:DKKF1:1,2014-11-01T04:00:00Z,25.1800,-80.4900,1.5,32.15,1111122 
ENP,ioos.station.NOAA.NDBC:DKKF1:1,2014-11-01T05:00:00Z,25.1800,-80.4900,1.5,32.1,1111122 
ENP,ioos.station.NOAA.NDBC:DKKF1:1,2014-11-01T07:00:00Z,25.1800,-80.4900,1.5,31.98,1111122 
ENP,ioos.station.NOAA.NDBC:DKKF1:1,2014-11-01T08:00:00Z,25.1800,-80.4900,1.5,32.02,1111122 
ENP,ioos.station.NOAA.NDBC:DKKF1:1,2014-11-01T09:00:00Z,25.1800,-80.4900,1.5,32.1,11111222 
ENP,ioos.station.NOAA.NDBC:DKKF1:1,2014-11-01T10:00:00Z,25.1800,-80.4900,1.5,32.14,1111122 
ENP,ioos.station.NOAA.NDBC:DKKF1:1,2014-11-01T11:00:00Z,25.1800,-80.4900,1.5,32.15,1111122 
ENP,ioos.station.NOAA.NDBC:DKKF1:1,2014-11-01T12:00:00Z,25.1800,-80.4900,1.5,32.15,1111122 
ENP,ioos.station.NOAA.NDBC:DKKF1:1,2014-11-01T13:00:00Z,25.1800,-80.4900,1.5,32.15,1111122 
ENP,ioos.station.NOAA.NDBC:DKKF1:1,2014-11-01T14:00:00Z,25.1800,-80.4900,1.5,32.14,1111122 
ENP,ioos.station.NOAA.NDBC:DKKF1:1,2014-11-01T15:00:00Z,25.1800,-80.4900,1.5,32.14,1111122 
ENP,ioos.station.NOAA.NDBC:DKKF1:1,2014-11-01T16:00:00Z,25.1800,-80.4900,1.5,32.23,1111122 
ENP,ioos.station.NOAA.NDBC:DKKF1:1,2014-11-01T17:00:00Z,25.1800,-80.4900,1.5,32.2,11111222 
ENP,ioos.station.NOAA.NDBC:DKKF1:1,2014-11-01T18:00:00Z,25.1800,-80.4900,1.5,32.23,1111122 
ENP,ioos.station.NOAA.NDBC:DKKF1:1,2014-11-01T19:00:00Z,25.1800,-80.4900,1.5,32.19,1111122 
ENP,ioos.station.NOAA.NDBC:DKKF1:1,2014-11-01T20:00:00Z,25.1800,-80.4900,1.5,32.18,1111122 
ENP,ioos.station.NOAA.NDBC:DKKF1:1,2014-11-01T22:00:00Z,25.1800,-80.4900,1.5,32.19,1111122 
ENP,ioos.station.NOAA.NDBC:DKKF1:1,2014-11-01T23:00:00Z,25.1800,-80.4900,1.5,32.12,1111122 
ENP,ioos.station.NOAA.NDBC:DKKF1:1,2014-11-02T00:00:00Z,25.1800,-80.4900,1.5,32.09,1111122 
ENP,ioos.station.NOAA.NDBC:DKKF1:1,2014-11-02T02:00:00Z,25.1800,-80.4900,1.5,32.33,1111122 
ENP,ioos.station.NOAA.NDBC:DKKF1:1,2014-11-02T03:00:00Z,25.1800,-80.4900,1.5,32.35,1111122 
ENP,ioos.station.NOAA.NDBC:DKKF1:1,2014-11-02T05:00:00Z,25.1800,-80.4900,1.5,32.46,1111122 
ENP,ioos.station.NOAA.NDBC:DKKF1:1,2014-11-02T06:00:00Z,25.1800,-80.4900,1.5,32.5,1111122 
ENP,ioos.station.NOAA.NDBC:DKKF1:1,2014-11-02T07:00:00Z,25.1800,-80.4900,1.5,32.55,1111122 
ENP,ioos.station.NOAA.NDBC:DKKF1:1,2014-11-02T09:00:00Z,25.1800,-80.4900,1.5,32.47,1111122 
ENP,ioos.station.NOAA.NDBC:DKKF1:1,2014-11-02T10:00:00Z,25.1800,-80.4900,1.5,32.44,1111122 
ENP,ioos.station.NOAA.NDBC:DKKF1:1,2014-11-02T11:00:00Z,25.1800,-80.4900,1.5,32.45,1111122 
ENP,ioos.station.NOAA.NDBC:DKKF1:1,2014-11-02T12:00:00Z,25.1800,-80.4900,1.5,32.5,11111222 
ENP,ioos.station.NOAA.NDBC:DKKF1:1,2014-11-02T13:00:00Z,25.1800,-80.4900,1.5,32.49,1111122 
ENP,ioos.station.NOAA.NDBC:DKKF1:1,2014-11-02T14:00:00Z,25.1800,-80.4900,1.5,32.52,1111122 
ENP,ioos.station.NOAA.NDBC:DKKF1:1,2014-11-02T15:00:00Z,25.1800,-80.4900,1.5,32.52,1111122 
ENP,ioos.station.NOAA.NDBC:DKKF1:1,2014-11-02T16:00:00Z,25.1800,-80.4900,1.5,32.5,1111122 
ENP,ioos.station.NOAA.NDBC:DKKF1:1,2014-11-02T17:00:00Z,25.1800,-80.4900,1.5,32.47,1111122 
ENP,ioos.station.NOAA.NDBC:DKKF1:1,2014-11-02T18:00:00Z,25.1800,-80.4900,1.5,32.47,1111122 
ENP,ioos.station.NOAA.NDBC:DKKF1:1,2014-11-02T19:00:00Z,25.1800,-80.4900,1.5,32.46,1111122 
ENP,ioos.station.NOAA.NDBC:DKKF1:1,2014-11-02T21:00:00Z,25.1800,-80.4900,1.5,32.44,1111122 
ENP,ioos.station.NOAA.NDBC:DKKF1:1,2014-11-02T22:00:00Z,25.1800,-80.4900,1.5,32.42,1111122 
ENP,ioos.station.NOAA.NDBC:DKKF1:1,2014-11-03T00:00:00Z,25.1800,-80.4900,1.5,32.41,1111122 
ENP,ioos.station.NOAA.NDBC:DKKF1:1,2014-11-03T01:00:00Z,25.1800,-80.4900,1.5,32.42,1111122 
ENP,ioos.station.NOAA.NDBC:DKKF1:1,2014-11-03T02:00:00Z,25.1800,-80.4900,1.5,32.45,1111122 
ENP,ioos.station.NOAA.NDBC:DKKF1:1,2014-11-03T03:00:00Z,25.1800,-80.4900,1.5,32.49,1111122 
ENP,ioos.station.NOAA.NDBC:DKKF1:1,2014-11-03T05:00:00Z,25.1800,-80.4900,1.5,32.55,1111122 
ENP,ioos.station.NOAA.NDBC:DKKF1:1,2014-11-03T06:00:00Z,25.1800,-80.4900,1.5,32.57,1111122 
ENP,ioos.station.NOAA.NDBC:DKKF1:1,2014-11-03T07:00:00Z,25.1800,-80.4900,1.5,32.6,11111222 
ENP,ioos.station.NOAA.NDBC:DKKF1:1,2014-11-03T08:00:00Z,25.1800,-80.4900,1.5,32.57,1111122 
ENP,ioos.station.NOAA.NDBC:DKKF1:1,2014-11-03T09:00:00Z,25.1800,-80.4900,1.5,32.6,11111222 
ENP,ioos.station.NOAA.NDBC:DKKF1:1,2014-11-03T10:00:00Z,25.1800,-80.4900,1.5,32.57,1111122 
ENP,ioos.station.NOAA.NDBC:DKKF1:1,2014-11-03T11:00:00Z,25.1800,-80.4900,1.5,32.57,1111122 
ENP,ioos.station.NOAA.NDBC:DKKF1:1,2014-11-03T12:00:00Z,25.1800,-80.4900,1.5,32.6,11111222 
ENP,ioos.station.NOAA.NDBC:DKKF1:1,2014-11-03T13:00:00Z,25.1800,-80.4900,1.5,32.59,1111122 
ENP,ioos.station.NOAA.NDBC:DKKF1:1,2014-11-03T14:00:00Z,25.1800,-80.4900,1.5,32.55,1111122 
ENP,ioos.station.NOAA.NDBC:DKKF1:1,2014-11-03T15:00:00Z,25.1800,-80.4900,1.5,32.5,1111122 
ENP,ioos.station.NOAA.NDBC:DKKF1:1,2014-11-03T16:00:00Z,25.1800,-80.4900,1.5,32.49,1111122 
ENP,ioos.station.NOAA.NDBC:DKKF1:1,2014-11-03T17:00:00Z,25.1800,-80.4900,1.5,32.55,1111122 
ENP,ioos.station.NOAA.NDBC:DKKF1:1,2014-11-03T18:00:00Z,25.1800,-80.4900,1.5,32.56,1111122 
ENP,ioos.station.NOAA.NDBC:DKKF1:1,2014-11-03T19:00:00Z,25.1800,-80.4900,1.5,32.6,1111122 
ENP,ioos.station.NOAA.NDBC:DKKF1:1,2014-11-03T21:00:00Z,25.1800,-80.4900,1.5,32.72,1111122 
ENP,ioos.station.NOAA.NDBC:DKKF1:1,2014-11-03T22:00:00Z,25.1800,-80.4900,1.5,32.73,1111122 
ENP,ioos.station.NOAA.NDBC:DKKF1:1,2014-11-03T23:00:00Z,25.1800,-80.4900,1.5,32.75,1111122 
ENP,ioos.station.NOAA.NDBC:DKKF1:1,2014-11-04T01:00:00Z,25.1800,-80.4900,1.5,32.78,1111122 
ENP,ioos.station.NOAA.NDBC:DKKF1:1,2014-11-04T02:00:00Z,25.1800,-80.4900,1.5,32.79,1111122 
ENP,ioos.station.NOAA.NDBC:DKKF1:1,2014-11-04T03:00:00Z,25.1800,-80.4900,1.5,32.79,1111122 
ENP,ioos.station.NOAA.NDBC:DKKF1:1,2014-11-04T04:00:00Z,25.1800,-80.4900,1.5,32.8,11111222 
ENP,ioos.station.NOAA.NDBC:DKKF1:1,2014-11-04T05:00:00Z,25.1800,-80.4900,1.5,32.75,1111122 
ENP,ioos.station.NOAA.NDBC:DKKF1:1,2014-11-04T06:00:00Z,25.1800,-80.4900,1.5,32.73,1111122 
ENP,ioos.station.NOAA.NDBC:DKKF1:1,2014-11-04T07:00:00Z,25.1800,-80.4900,1.5,32.7,11111222 
ENP,ioos.station.NOAA.NDBC:DKKF1:1,2014-11-04T08:00:00Z,25.1800,-80.4900,1.5,32.71,1111122 
ENP,ioos.station.NOAA.NDBC:DKKF1:1,2014-11-04T09:00:00Z,25.1800,-80.4900,1.5,32.71,1111122 
ENP,ioos.station.NOAA.NDBC:DKKF1:1,2014-11-04T10:00:00Z,25.1800,-80.4900,1.5,32.73,1111122 
ENP,ioos.station.NOAA.NDBC:DKKF1:1,2014-11-04T11:00:00Z,25.1800,-80.4900,1.5,32.73,1111122 
ENP,ioos.station.NOAA.NDBC:DKKF1:1,2014-11-04T12:00:00Z,25.1800,-80.4900,1.5,32.7,11111222 
ENP,ioos.station.NOAA.NDBC:DKKF1:1,2014-11-04T13:00:00Z,25.1800,-80.4900,1.5,32.71,1111122 
ENP,ioos.station.NOAA.NDBC:DKKF1:1,2014-11-04T14:00:00Z,25.1800,-80.4900,1.5,32.71,1111122 
ENP,ioos.station.NOAA.NDBC:DKKF1:1,2014-11-04T16:00:00Z,25.1800,-80.4900,1.5,32.74,1111122 
ENP,ioos.station.NOAA.NDBC:DKKF1:1,2014-11-04T17:00:00Z,25.1800,-80.4900,1.5,32.8,11111222 
ENP,ioos.station.NOAA.NDBC:DKKF1:1,2014-11-04T18:00:00Z,25.1800,-80.4900,1.5,32.74,1111122 
ENP,ioos.station.NOAA.NDBC:DKKF1:1,2014-11-04T19:00:00Z,25.1800,-80.4900,1.5,32.68,1111122 
ENP,ioos.station.NOAA.NDBC:DKKF1:1,2014-11-04T20:00:00Z,25.1800,-80.4900,1.5,32.7,11111222 
ENP,ioos.station.NOAA.NDBC:DKKF1:1,2014-11-04T21:00:00Z,25.1800,-80.4900,1.5,32.74,1111122 
ENP,ioos.station.NOAA.NDBC:DKKF1:1,2014-11-04T22:00:00Z,25.1800,-80.4900,1.5,32.76,1111122 
ENP,ioos.station.NOAA.NDBC:DKKF1:1,2014-11-04T23:00:00Z,25.1800,-80.4900,1.5,32.76,1111122 
ENP,ioos.station.NOAA.NDBC:DKKF1:1,2014-11-05T00:00:00Z,25.1800,-80.4900,1.5,32.8,11111222 
ENP,ioos.station.NOAA.NDBC:DKKF1:1,2014-11-05T01:00:00Z,25.1800,-80.4900,1.5,32.77,1111122 
ENP,ioos.station.NOAA.NDBC:DKKF1:1,2014-11-05T02:00:00Z,25.1800,-80.4900,1.5,32.78,1111122 
ENP,ioos.station.NOAA.NDBC:DKKF1:1,2014-11-05T03:00:00Z,25.1800,-80.4900,1.5,32.78,1111122 
ENP,ioos.station.NOAA.NDBC:DKKF1:1,2014-11-05T04:00:00Z,25.1800,-80.4900,1.5,32.8,11111222 
ENP,ioos.station.NOAA.NDBC:DKKF1:1,2014-11-05T05:00:00Z,25.1800,-80.4900,1.5,32.82,1111122 
ENP,ioos.station.NOAA.NDBC:DKKF1:1,2014-11-05T06:00:00Z,25.1800,-80.4900,1.5,32.82,1111122 
ENP,ioos.station.NOAA.NDBC:DKKF1:1,2014-11-05T07:00:00Z,25.1800,-80.4900,1.5,32.83,1111122 
ENP,ioos.station.NOAA.NDBC:DKKF1:1,2014-11-05T08:00:00Z,25.1800,-80.4900,1.5,32.8,11111222 
ENP,ioos.station.NOAA.NDBC:DKKF1:1,2014-11-05T09:00:00Z,25.1800,-80.4900,1.5,32.84,1111122 
ENP,ioos.station.NOAA.NDBC:DKKF1:1,2014-11-05T10:00:00Z,25.1800,-80.4900,1.5,32.84,1111122 
ENP,ioos.station.NOAA.NDBC:DKKF1:1,2014-11-05T11:00:00Z,25.1800,-80.4900,1.5,32.85,1111122 
ENP,ioos.station.NOAA.NDBC:DKKF1:1,2014-11-05T12:00:00Z,25.1800,-80.4900,1.5,32.9,11111222 
ENP,ioos.station.NOAA.NDBC:DKKF1:1,2014-11-05T13:00:00Z,25.1800,-80.4900,1.5,32.86,1111122 
ENP,ioos.station.NOAA.NDBC:DKKF1:1,2014-11-05T14:00:00Z,25.1800,-80.4900,1.5,32.89,1111122 
ENP,ioos.station.NOAA.NDBC:DKKF1:1,2014-11-05T15:00:00Z,25.1800,-80.4900,1.5,32.91,1111122 
ENP,ioos.station.NOAA.NDBC:DKKF1:1,2014-11-05T16:00:00Z,25.1800,-80.4900,1.5,32.94,1111122 
ENP,ioos.station.NOAA.NDBC:DKKF1:1,2014-11-05T17:00:00Z,25.1800,-80.4900,1.5,32.98,1111122 
ENP,ioos.station.NOAA.NDBC:DKKF1:1,2014-11-05T18:00:00Z,25.1800,-80.4900,1.5,33.0,11111222 
ENP,ioos.station.NOAA.NDBC:DKKF1:1,2014-11-05T19:00:00Z,25.1800,-80.4900,1.5,33.01,1111122 
ENP,ioos.station.NOAA.NDBC:DKKF1:1,2014-11-05T21:00:00Z,25.1800,-80.4900,1.5,33.03,1111122 
ENP,ioos.station.NOAA.NDBC:DKKF1:1,2014-11-05T22:00:00Z,25.1800,-80.4900,1.5,33.03,1111122 
ENP,ioos.station.NOAA.NDBC:DKKF1:1,2014-11-05T23:00:00Z,25.1800,-80.4900,1.5,33.03,1111122 
ENP,ioos.station.NOAA.NDBC:DKKF1:1,2014-11-06T00:00:00Z,25.1800,-80.4900,1.5,33.03,1111122 
ENP,ioos.station.NOAA.NDBC:DKKF1:1,2014-11-06T01:00:00Z,25.1800,-80.4900,1.5,33.01,1111122 
ENP,ioos.station.NOAA.NDBC:DKKF1:1,2014-11-06T02:00:00Z,25.1800,-80.4900,1.5,32.93,1111122 
ENP,ioos.station.NOAA.NDBC:DKKF1:1,2014-11-06T03:00:00Z,25.1800,-80.4900,1.5,32.82,1111122 
ENP,ioos.station.NOAA.NDBC:DKKF1:1,2014-11-06T04:00:00Z,25.1800,-80.4900,1.5,32.8,11111222 
ENP,ioos.station.NOAA.NDBC:DKKF1:1,2014-11-06T05:00:00Z,25.1800,-80.4900,1.5,32.78,1111122 
ENP,ioos.station.NOAA.NDBC:DKKF1:1,2014-11-06T06:00:00Z,25.1800,-80.4900,1.5,32.77,1111122 
ENP,ioos.station.NOAA.NDBC:DKKF1:1,2014-11-06T07:00:00Z,25.1800,-80.4900,1.5,32.74,1111122 
ENP,ioos.station.NOAA.NDBC:DKKF1:1,2014-11-06T08:00:00Z,25.1800,-80.4900,1.5,32.8,11111222 
ENP,ioos.station.NOAA.NDBC:DKKF1:1,2014-11-06T09:00:00Z,25.1800,-80.4900,1.5,32.76,1111122 
ENP,ioos.station.NOAA.NDBC:DKKF1:1,2014-11-06T10:00:00Z,25.1800,-80.4900,1.5,32.76,1111122 
ENP,ioos.station.NOAA.NDBC:DKKF1:1,2014-11-06T11:00:00Z,25.1800,-80.4900,1.5,32.75,1111122 
ENP,ioos.station.NOAA.NDBC:DKKF1:1,2014-11-06T12:00:00Z,25.1800,-80.4900,1.5,32.74,1111122 
ENP,ioos.station.NOAA.NDBC:DKKF1:1,2014-11-06T13:00:00Z,25.1800,-80.4900,1.5,32.73,1111122 
ENP,ioos.station.NOAA.NDBC:DKKF1:1,2014-11-06T14:00:00Z,25.1800,-80.4900,1.5,32.7,1111122 
ENP,ioos.station.NOAA.NDBC:DKKF1:1,2014-11-06T15:00:00Z,25.1800,-80.4900,1.5,32.67,1111122 
ENP,ioos.station.NOAA.NDBC:DKKF1:1,2014-11-06T16:00:00Z,25.1800,-80.4900,1.5,32.7,11111222 
ENP,ioos.station.NOAA.NDBC:DKKF1:1,2014-11-06T17:00:00Z,25.1800,-80.4900,1.5,32.67,1111122 
ENP,ioos.station.NOAA.NDBC:DKKF1:1,2014-11-06T18:00:00Z,25.1800,-80.4900,1.5,32.68,1111122 
ENP,ioos.station.NOAA.NDBC:DKKF1:1,2014-11-06T19:00:00Z,25.1800,-80.4900,1.5,32.71,1111122 
ENP,ioos.station.NOAA.NDBC:DKKF1:1,2014-11-06T20:00:00Z,25.1800,-80.4900,1.5,32.7,11111222 
ENP,ioos.station.NOAA.NDBC:DKKF1:1,2014-11-06T21:00:00Z,25.1800,-80.4900,1.5,32.75,1111122 
ENP,ioos.station.NOAA.NDBC:DKKF1:1,2014-11-06T22:00:00Z,25.1800,-80.4900,1.5,32.78,1111122 
ENP,ioos.station.NOAA.NDBC:DKKF1:1,2014-11-06T23:00:00Z,25.1800,-80.4900,1.5,32.82,1111122 
ENP,ioos.station.NOAA.NDBC:DKKF1:1,2014-11-07T00:00:00Z,25.1800,-80.4900,1.5,32.8,11111222 
ENP,ioos.station.NOAA.NDBC:DKKF1:1,2014-11-07T01:00:00Z,25.1800,-80.4900,1.5,32.85,1111122 
ENP,ioos.station.NOAA.NDBC:DKKF1:1,2014-11-07T02:00:00Z,25.1800,-80.4900,1.5,32.87,1111122 
ENP,ioos.station.NOAA.NDBC:DKKF1:1,2014-11-07T03:00:00Z,25.1800,-80.4900,1.5,32.87,1111122 
ENP,ioos.station.NOAA.NDBC:DKKF1:1,2014-11-07T05:00:00Z,25.1800,-80.4900,1.5,32.89,1111122 
ENP,ioos.station.NOAA.NDBC:DKKF1:1,2014-11-07T06:00:00Z,25.1800,-80.4900,1.5,32.9,1111122 
ENP,ioos.station.NOAA.NDBC:DKKF1:1,2014-11-07T07:00:00Z,25.1800,-80.4900,1.5,32.91,1111122 
ENP,ioos.station.NOAA.NDBC:DKKF1:1,2014-11-07T08:00:00Z,25.1800,-80.4900,1.5,32.9,11111222 
ENP,ioos.station.NOAA.NDBC:DKKF1:1,2014-11-07T09:00:00Z,25.1800,-80.4900,1.5,33.16,1111122 
ENP,ioos.station.NOAA.NDBC:DKKF1:1,2014-11-07T10:00:00Z,25.1800,-80.4900,1.5,33.27,1111122 
ENP,ioos.station.NOAA.NDBC:DKKF1:1,2014-11-07T11:00:00Z,25.1800,-80.4900,1.5,33.31,1111122 
ENP,ioos.station.NOAA.NDBC:DKKF1:1,2014-11-07T12:00:00Z,25.1800,-80.4900,1.5,33.31,1111122 
ENP,ioos.station.NOAA.NDBC:DKKF1:1,2014-11-07T13:00:00Z,25.1800,-80.4900,1.5,33.39,1111122 
ENP,ioos.station.NOAA.NDBC:DKKF1:1,2014-11-07T14:00:00Z,25.1800,-80.4900,1.5,33.4,1111122 
ENP,ioos.station.NOAA.NDBC:DKKF1:1,2014-11-07T15:00:00Z,25.1800,-80.4900,1.5,33.5,11111222 
ENP,ioos.station.NOAA.NDBC:DKKF1:1,2014-11-07T16:00:00Z,25.1800,-80.4900,1.5,33.59,1111122 
ENP,ioos.station.NOAA.NDBC:DKKF1:1,2014-11-07T17:00:00Z,25.1800,-80.4900,1.5,33.77,1111122 
ENP,ioos.station.NOAA.NDBC:DKKF1:1,2014-11-07T18:00:00Z,25.1800,-80.4900,1.5,33.83,1111122 
ENP,ioos.station.NOAA.NDBC:DKKF1:1,2014-11-07T19:00:00Z,25.1800,-80.4900,1.5,33.88,1111122 
ENP,ioos.station.NOAA.NDBC:DKKF1:1,2014-11-07T20:00:00Z,25.1800,-80.4900,1.5,33.8,11111222 
ENP,ioos.station.NOAA.NDBC:DKKF1:1,2014-11-07T21:00:00Z,25.1800,-80.4900,1.5,33.64,1111122 
ENP,ioos.station.NOAA.NDBC:DKKF1:1,2014-11-07T22:00:00Z,25.1800,-80.4900,1.5,33.66,1111122 
ENP,ioos.station.NOAA.NDBC:DKKF1:1,2014-11-07T23:00:00Z,25.1800,-80.4900,1.5,33.72,1111122 
ENP,ioos.station.NOAA.NDBC:DKKF1:1,2014-11-08T00:00:00Z,25.1800,-80.4900,1.5,33.9,11111222 
ENP,ioos.station.NOAA.NDBC:DKKF1:1,2014-11-08T01:00:00Z,25.1800,-80.4900,1.5,33.94,1111122 
ENP,ioos.station.NOAA.NDBC:DKKF1:1,2014-11-08T02:00:00Z,25.1800,-80.4900,1.5,33.71,1111122 
ENP,ioos.station.NOAA.NDBC:DKKF1:1,2014-11-08T03:00:00Z,25.1800,-80.4900,1.5,33.64,1111122 
ENP,ioos.station.NOAA.NDBC:DKKF1:1,2014-11-08T05:00:00Z,25.1800,-80.4900,1.5,33.53,1111122 
ENP,ioos.station.NOAA.NDBC:DKKF1:1,2014-11-08T07:00:00Z,25.1800,-80.4900,1.5,33.57,1111122 
ENP,ioos.station.NOAA.NDBC:DKKF1:1,2014-11-08T08:00:00Z,25.1800,-80.4900,1.5,33.6,11111222 
ENP,ioos.station.NOAA.NDBC:DKKF1:1,2014-11-08T09:00:00Z,25.1800,-80.4900,1.5,33.58,1111122 
ENP,ioos.station.NOAA.NDBC:DKKF1:1,2014-11-08T10:00:00Z,25.1800,-80.4900,1.5,33.64,1111122 
ENP,ioos.station.NOAA.NDBC:DKKF1:1,2014-11-08T11:00:00Z,25.1800,-80.4900,1.5,33.73,1111122 
ENP,ioos.station.NOAA.NDBC:DKKF1:1,2014-11-08T12:00:00Z,25.1800,-80.4900,1.5,33.83,1111122 
ENP,ioos.station.NOAA.NDBC:DKKF1:1,2014-11-08T13:00:00Z,25.1800,-80.4900,1.5,33.88,1111122 
ENP,ioos.station.NOAA.NDBC:DKKF1:1,2014-11-08T14:00:00Z,25.1800,-80.4900,1.5,33.9,1111122 
ENP,ioos.station.NOAA.NDBC:DKKF1:1,2014-11-08T16:00:00Z,25.1800,-80.4900,1.5,33.97,1111122 
ENP,ioos.station.NOAA.NDBC:DKKF1:1,2014-11-08T17:00:00Z,25.1800,-80.4900,1.5,33.98,1111122 
ENP,ioos.station.NOAA.NDBC:DKKF1:1,2014-11-08T19:00:00Z,25.1800,-80.4900,1.5,34.03,1111122 
ENP,ioos.station.NOAA.NDBC:DKKF1:1,2014-11-08T20:00:00Z,25.1800,-80.4900,1.5,33.97,1111122 
ENP,ioos.station.NOAA.NDBC:DKKF1:1,2014-11-08T21:00:00Z,25.1800,-80.4900,1.5,33.8,1111122 
ENP,ioos.station.NOAA.NDBC:DKKF1:1,2014-11-08T22:00:00Z,25.1800,-80.4900,1.5,33.66,1111122 
ENP,ioos.station.NOAA.NDBC:DKKF1:1,2014-11-08T23:00:00Z,25.1800,-80.4900,1.5,33.6,11111222 
ENP,ioos.station.NOAA.NDBC:DKKF1:1,2014-11-09T00:00:00Z,25.1800,-80.4900,1.5,33.34,1111122 
ENP,ioos.station.NOAA.NDBC:DKKF1:1,2014-11-09T01:00:00Z,25.1800,-80.4900,1.5,33.18,1111122 
ENP,ioos.station.NOAA.NDBC:DKKF1:1,2014-11-09T02:00:00Z,25.1800,-80.4900,1.5,32.95,1111122 
ENP,ioos.station.NOAA.NDBC:DKKF1:1,2014-11-09T03:00:00Z,25.1800,-80.4900,1.5,32.97,1111122 
ENP,ioos.station.NOAA.NDBC:DKKF1:1,2014-11-09T04:00:00Z,25.1800,-80.4900,1.5,33.1,11111222 
ENP,ioos.station.NOAA.NDBC:DKKF1:1,2014-11-09T05:00:00Z,25.1800,-80.4900,1.5,33.18,1111122 
ENP,ioos.station.NOAA.NDBC:DKKF1:1,2014-11-09T06:00:00Z,25.1800,-80.4900,1.5,33.2,1111122 
ENP,ioos.station.NOAA.NDBC:DKKF1:1,2014-11-09T07:00:00Z,25.1800,-80.4900,1.5,33.2,1111122 
ENP,ioos.station.NOAA.NDBC:DKKF1:1,2014-11-09T08:00:00Z,25.1800,-80.4900,1.5,33.2,11111222 
ENP,ioos.station.NOAA.NDBC:DKKF1:1,2014-11-09T09:00:00Z,25.1800,-80.4900,1.5,33.14,1111122 
ENP,ioos.station.NOAA.NDBC:DKKF1:1,2014-11-09T10:00:00Z,25.1800,-80.4900,1.5,33.16,1111122 
ENP,ioos.station.NOAA.NDBC:DKKF1:1,2014-11-09T11:00:00Z,25.1800,-80.4900,1.5,32.99,1111122 
ENP,ioos.station.NOAA.NDBC:DKKF1:1,2014-11-09T14:00:00Z,25.1800,-80.4900,1.5,32.47,1111122 
ENP,ioos.station.NOAA.NDBC:DKKF1:1,2014-11-09T15:00:00Z,25.1800,-80.4900,1.5,32.65,1111122 
ENP,ioos.station.NOAA.NDBC:DKKF1:1,2014-11-09T17:00:00Z,25.1800,-80.4900,1.5,32.84,1111122 
ENP,ioos.station.NOAA.NDBC:DKKF1:1,2014-11-09T18:00:00Z,25.1800,-80.4900,1.5,32.84,1111122 
ENP,ioos.station.NOAA.NDBC:DKKF1:1,2014-11-09T19:00:00Z,25.1800,-80.4900,1.5,32.85,1111122 
ENP,ioos.station.NOAA.NDBC:DKKF1:1,2014-11-09T20:00:00Z,25.1800,-80.4900,1.5,32.86,1111122 
ENP,ioos.station.NOAA.NDBC:DKKF1:1,2014-11-09T21:00:00Z,25.1800,-80.4900,1.5,32.85,1111122 
ENP,ioos.station.NOAA.NDBC:DKKF1:1,2014-11-09T22:00:00Z,25.1800,-80.4900,1.5,32.89,1111122 
ENP,ioos.station.NOAA.NDBC:DKKF1:1,2014-11-09T23:00:00Z,25.1800,-80.4900,1.5,32.9,11111222 
ENP,ioos.station.NOAA.NDBC:DKKF1:1,2014-11-10T00:00:00Z,25.1800,-80.4900,1.5,32.93,1111122 
ENP,ioos.station.NOAA.NDBC:DKKF1:1,2014-11-10T01:00:00Z,25.1800,-80.4900,1.5,32.98,1111122 
ENP,ioos.station.NOAA.NDBC:DKKF1:1,2014-11-10T02:00:00Z,25.1800,-80.4900,1.5,33.01,1111122 
ENP,ioos.station.NOAA.NDBC:DKKF1:1,2014-11-10T03:00:00Z,25.1800,-80.4900,1.5,33.03,1111122 
ENP,ioos.station.NOAA.NDBC:DKKF1:1,2014-11-10T04:00:00Z,25.1800,-80.4900,1.5,33.03,1111122 
ENP,ioos.station.NOAA.NDBC:DKKF1:1,2014-11-10T05:00:00Z,25.1800,-80.4900,1.5,33.1,11111222 
ENP,ioos.station.NOAA.NDBC:DKKF1:1,2014-11-10T06:00:00Z,25.1800,-80.4900,1.5,33.06,1111122 
ENP,ioos.station.NOAA.NDBC:DKKF1:1,2014-11-10T07:00:00Z,25.1800,-80.4900,1.5,33.0,11111222 
ENP,ioos.station.NOAA.NDBC:DKKF1:1,2014-11-10T08:00:00Z,25.1800,-80.4900,1.5,33.08,1111122 
ENP,ioos.station.NOAA.NDBC:DKKF1:1,2014-11-10T09:00:00Z,25.1800,-80.4900,1.5,33.09,1111122 
ENP,ioos.station.NOAA.NDBC:DKKF1:1,2014-11-10T10:00:00Z,25.1800,-80.4900,1.5,33.09,1111122 
ENP,ioos.station.NOAA.NDBC:DKKF1:1,2014-11-10T11:00:00Z,25.1800,-80.4900,1.5,33.14,1111122 
ENP,ioos.station.NOAA.NDBC:DKKF1:1,2014-11-10T12:00:00Z,25.1800,-80.4900,1.5,33.09,1111122 
ENP,ioos.station.NOAA.NDBC:DKKF1:1,2014-11-10T13:00:00Z,25.1800,-80.4900,1.5,33.14,1111122 
ENP,ioos.station.NOAA.NDBC:DKKF1:1,2014-11-10T14:00:00Z,25.1800,-80.4900,1.5,33.14,1111122 
ENP,ioos.station.NOAA.NDBC:DKKF1:1,2014-11-10T15:00:00Z,25.1800,-80.4900,1.5,33.1,11111222 
ENP,ioos.station.NOAA.NDBC:DKKF1:1,2014-11-10T16:00:00Z,25.1800,-80.4900,1.5,33.14,1111122 
ENP,ioos.station.NOAA.NDBC:DKKF1:1,2014-11-10T17:00:00Z,25.1800,-80.4900,1.5,33.15,1111122 
ENP,ioos.station.NOAA.NDBC:DKKF1:1,2014-11-10T18:00:00Z,25.1800,-80.4900,1.5,33.17,1111122 
ENP,ioos.station.NOAA.NDBC:DKKF1:1,2014-11-10T19:00:00Z,25.1800,-80.4900,1.5,33.2,11111222 
ENP,ioos.station.NOAA.NDBC:DKKF1:1,2014-11-10T20:00:00Z,25.1800,-80.4900,1.5,33.18,1111122 
ENP,ioos.station.NOAA.NDBC:DKKF1:1,2014-11-10T21:00:00Z,25.1800,-80.4900,1.5,33.05,1111122 
ENP,ioos.station.NOAA.NDBC:DKKF1:1,2014-11-10T22:00:00Z,25.1800,-80.4900,1.5,32.97,1111122 
ENP,ioos.station.NOAA.NDBC:DKKF1:1,2014-11-10T23:00:00Z,25.1800,-80.4900,1.5,32.97,1111122 
ENP,ioos.station.NOAA.NDBC:DKKF1:1,2014-11-11T00:00:00Z,25.1800,-80.4900,1.5,33.0,11111222 
ENP,ioos.station.NOAA.NDBC:DKKF1:1,2014-11-11T01:00:00Z,25.1800,-80.4900,1.5,33.02,1111122 
ENP,ioos.station.NOAA.NDBC:DKKF1:1,2014-11-11T02:00:00Z,25.1800,-80.4900,1.5,33.03,1111122 
ENP,ioos.station.NOAA.NDBC:DKKF1:1,2014-11-11T03:00:00Z,25.1800,-80.4900,1.5,33.03,1111122 
ENP,ioos.station.NOAA.NDBC:DKKF1:1,2014-11-11T05:00:00Z,25.1800,-80.4900,1.5,33.08,1111122 
ENP,ioos.station.NOAA.NDBC:DKKF1:1,2014-11-11T06:00:00Z,25.1800,-80.4900,1.5,33.09,1111122 
ENP,ioos.station.NOAA.NDBC:DKKF1:1,2014-11-11T07:00:00Z,25.1800,-80.4900,1.5,33.12,1111122 
ENP,ioos.station.NOAA.NDBC:DKKF1:1,2014-11-11T08:00:00Z,25.1800,-80.4900,1.5,33.2,11111222 
ENP,ioos.station.NOAA.NDBC:DKKF1:1,2014-11-11T09:00:00Z,25.1800,-80.4900,1.5,33.2,1111122 
ENP,ioos.station.NOAA.NDBC:DKKF1:1,2014-11-11T10:00:00Z,25.1800,-80.4900,1.5,33.24,1111122 
ENP,ioos.station.NOAA.NDBC:DKKF1:1,2014-11-11T11:00:00Z,25.1800,-80.4900,1.5,33.25,1111122 
ENP,ioos.station.NOAA.NDBC:DKKF1:1,2014-11-11T13:00:00Z,25.1800,-80.4900,1.5,33.25,1111122 
ENP,ioos.station.NOAA.NDBC:DKKF1:1,2014-11-11T14:00:00Z,25.1800,-80.4900,1.5,33.26,1111122 
ENP,ioos.station.NOAA.NDBC:DKKF1:1,2014-11-11T15:00:00Z,25.1800,-80.4900,1.5,33.28,1111122 
ENP,ioos.station.NOAA.NDBC:DKKF1:1,2014-11-11T16:00:00Z,25.1800,-80.4900,1.5,33.3,1111122 
ENP,ioos.station.NOAA.NDBC:DKKF1:1,2014-11-11T17:00:00Z,25.1800,-80.4900,1.5,33.31,1111122 
ENP,ioos.station.NOAA.NDBC:DKKF1:1,2014-11-11T18:00:00Z,25.1800,-80.4900,1.5,33.33,1111122 
ENP,ioos.station.NOAA.NDBC:DKKF1:1,2014-11-11T19:00:00Z,25.1800,-80.4900,1.5,33.36,1111122 
ENP,ioos.station.NOAA.NDBC:DKKF1:1,2014-11-11T20:00:00Z,25.1800,-80.4900,1.5,33.41,1111122 
ENP,ioos.station.NOAA.NDBC:DKKF1:1,2014-11-11T21:00:00Z,25.1800,-80.4900,1.5,33.44,1111122 
ENP,ioos.station.NOAA.NDBC:DKKF1:1,2014-11-11T22:00:00Z,25.1800,-80.4900,1.5,33.45,1111122 
ENP,ioos.station.NOAA.NDBC:DKKF1:1,2014-11-11T23:00:00Z,25.1800,-80.4900,1.5,33.47,1111122 
ENP,ioos.station.NOAA.NDBC:DKKF1:1,2014-11-12T00:00:00Z,25.1800,-80.4900,1.5,33.5,11111222 
ENP,ioos.station.NOAA.NDBC:DKKF1:1,2014-11-12T01:00:00Z,25.1800,-80.4900,1.5,33.5,11111222 
ENP,ioos.station.NOAA.NDBC:DKKF1:1,2014-11-12T02:00:00Z,25.1800,-80.4900,1.5,33.5,11111222 
ENP,ioos.station.NOAA.NDBC:DKKF1:1,2014-11-12T03:00:00Z,25.1800,-80.4900,1.5,33.5,11111222 
ENP,ioos.station.NOAA.NDBC:DKKF1:1,2014-11-12T04:00:00Z,25.1800,-80.4900,1.5,33.5,11111222 
ENP,ioos.station.NOAA.NDBC:DKKF1:1,2014-11-12T05:00:00Z,25.1800,-80.4900,1.5,30.3,11111222 
ENP,ioos.station.NOAA.NDBC:DKKF1:1,2014-11-12T06:00:00Z,25.1800,-80.4900,1.5,29.6,11111222 
ENP,ioos.station.NOAA.NDBC:DKKF1:1,2014-11-12T07:00:00Z,25.1800,-80.4900,1.5,30.4,11111222 
ENP,ioos.station.NOAA.NDBC:DKKF1:1,2014-11-12T08:00:00Z,25.1800,-80.4900,1.5,30.6,11111222 
ENP,ioos.station.NOAA.NDBC:DKKF1:1,2014-11-12T09:00:00Z,25.1800,-80.4900,1.5,30.3,11111222 
ENP,ioos.station.NOAA.NDBC:DKKF1:1,2014-11-12T10:00:00Z,25.1800,-80.4900,1.5,29.8,11111222 
ENP,ioos.station.NOAA.NDBC:DKKF1:1,2014-11-12T11:00:00Z,25.1800,-80.4900,1.5,28.8,11111222 
ENP,ioos.station.NOAA.NDBC:DKKF1:1,2014-11-12T12:00:00Z,25.1800,-80.4900,1.5,28.3,11111222 
ENP,ioos.station.NOAA.NDBC:DKKF1:1,2014-11-12T17:00:00Z,25.1800,-80.4900,1.5,30.7,11111222 
ENP,ioos.station.NOAA.NDBC:DKKF1:1,2014-11-12T18:00:00Z,25.1800,-80.4900,1.5,30.4,11111222 
ENP,ioos.station.NOAA.NDBC:DKKF1:1,2014-11-12T19:00:00Z,25.1800,-80.4900,1.5,30.6,11111222 
ENP,ioos.station.NOAA.NDBC:DKKF1:1,2014-11-12T20:00:00Z,25.1800,-80.4900,1.5,30.84,1111122 
ENP,ioos.station.NOAA.NDBC:DKKF1:1,2014-11-12T21:00:00Z,25.1800,-80.4900,1.5,31.18,1111122 
ENP,ioos.station.NOAA.NDBC:DKKF1:1,2014-11-12T22:00:00Z,25.1800,-80.4900,1.5,31.41,1111122 